Weather History for Tekamah, NE

Change the Weather History Date:

Friday, November 21, 2014

  Actual Average Record
Temperature  
Mean Temperature 26 °F -  
Max Temperature 39 °F 43 °F 73 °F (2012)
Min Temperature 12 °F 24 °F 1 °F (1964)
Degree Days  
Heating Degree Days 40    
Moisture  
Dew Point 22 °F    
Average Humidity 74    
Maximum Humidity 86    
Minimum Humidity 57    
Precipitation  
Precipitation 0.00 in - - ()
Sea Level Pressure  
Sea Level Pressure 30.14 in    
Wind  
Wind Speed 10 mph (SSE)    
Max Wind Speed 17 mph    
Max Gust Speed -    
Visibility 9 miles    
Events      
Averages and records for this station are not official NWS values.
T = Trace of Precipitation, MM = Missing Value Source: NWS Daily Summary

Daily Weather History Graph

Daily Weather History Graph

Search for Another Location

Airport:

Trip Planner

Search our weather history database for the weather conditions in past years. The results will help you decide how hot, cold, wet, or windy it might be!

Date:

Astronomy

Nov. 21, 2014 Rise Set
Actual Time 7:21 AM CST 4:59 PM CST
Civil Twilight 6:50 AM CST 5:29 PM CST
Nautical Twilight 6:16 AM CST 6:03 PM CST
Astronomical Twilight 5:43 AM CST 6:37 PM CST
Moon 6:16 AM CST (11/21) 4:45 PM CST (11/21)
Length of Visible Light 10h 39m
Length of Day
9h 38m
Waning Crescent, 1% of the Moon is Illuminated
Nov 21
Waning Crescent
Nov 22
New
Nov 29
First Quarter
Dec 6
Full
Dec 14
Last Quarter

Hourly Weather History & Observations

Time (CST) Temp. Windchill Dew Point Humidity Pressure Visibility Wind Dir Wind Speed Gust Speed Precip Events Conditions
12:54 AM 16.0 °F 5.3 °F 10.0 °F 77% 30.30 in 10.0 mi SSE 8.1 mph - N/A   Clear
1:54 AM 17.1 °F 6.6 °F 10.9 °F 77% 30.28 in 10.0 mi SE 8.1 mph - N/A   Clear
2:54 AM 15.1 °F 4.2 °F 10.0 °F 80% 30.28 in 10.0 mi SE 8.1 mph - N/A   Clear
3:54 AM 14.0 °F 5.1 °F 9.0 °F 80% 30.27 in 10.0 mi SSE 5.8 mph - N/A   Clear
4:54 AM 15.1 °F 5.2 °F 10.0 °F 80% 30.26 in 10.0 mi SSE 6.9 mph - N/A   Clear
5:54 AM 12.9 °F 5.2 °F 9.0 °F 84% 30.25 in 10.0 mi SSE 4.6 mph - N/A   Clear
6:54 AM 12.0 °F 1.5 °F 8.1 °F 84% 30.24 in 10.0 mi South 6.9 mph - N/A   Clear
7:54 AM 12.9 °F 2.6 °F 9.0 °F 84% 30.25 in 8.0 mi South 6.9 mph - N/A   Clear
8:54 AM 21.0 °F 11.4 °F 16.0 °F 81% 30.25 in 9.0 mi South 8.1 mph - N/A   Clear
9:54 AM 28.0 °F 17.0 °F 19.0 °F 69% 30.23 in 10.0 mi SSE 13.8 mph - N/A   Clear
10:54 AM 33.1 °F 23.9 °F 21.0 °F 61% 30.21 in 10.0 mi South 12.7 mph - N/A   Clear
11:54 AM 36.0 °F 26.3 °F 23.0 °F 59% 30.17 in 10.0 mi South 16.1 mph - N/A   Clear
12:54 PM 37.9 °F 28.5 °F 24.1 °F 57% 30.12 in 10.0 mi South 17.3 mph - N/A   Clear
1:54 PM 39.0 °F 30.6 °F 25.0 °F 57% 30.10 in 10.0 mi South 15.0 mph - N/A   Clear
2:54 PM 37.0 °F 28.1 °F 26.1 °F 65% 30.09 in 10.0 mi South 15.0 mph - N/A   Clear
3:54 PM 39.0 °F 31.0 °F 26.1 °F 60% 30.07 in 10.0 mi South 13.8 mph - N/A   Clear
4:54 PM 36.0 °F 29.0 °F 27.0 °F 70% 30.07 in 10.0 mi South 9.2 mph - N/A   Clear
5:54 PM 34.0 °F 28.8 °F 26.1 °F 73% 30.07 in 10.0 mi South 5.8 mph - N/A   Mostly Cloudy
6:54 PM 36.0 °F 28.0 °F 27.0 °F 70% 30.06 in 10.0 mi SSE 11.5 mph - N/A   Overcast
7:54 PM 37.9 °F 28.9 °F 30.0 °F 73% 30.03 in 10.0 mi SSE 16.1 mph - N/A   Overcast
8:29 PM 37.9 °F 30.0 °F 30.0 °F 73% 30.00 in 10.0 mi South 12.7 mph - N/A   Overcast
8:54 PM 37.9 °F 29.6 °F 30.9 °F 76% 30.02 in 9.0 mi South 13.8 mph - N/A   Overcast
9:54 PM 37.9 °F 28.9 °F 33.1 °F 83% 30.00 in 5.0 mi South 16.1 mph - N/A   Haze
10:23 PM 37.0 °F 28.1 °F 33.1 °F 86% 29.97 in 5.0 mi South 15.0 mph - N/A   Overcast
10:54 PM 37.0 °F 28.1 °F 33.1 °F 86% 29.99 in 5.0 mi South 15.0 mph - N/A   Overcast
11:54 PM 37.0 °F 29.3 °F 33.1 °F 86% 29.98 in 5.0 mi South 11.5 mph - N/A   Overcast